User: anonymous   Login
Location: Ku?niki
(51.4449°N, 17.8974°E)
Time: 03:41:41
(UTC+00:00)
Language:

Landsat 7 - Orbit

View from above orbital plane
View from above orbital plane
View from above satellite
View from above satellite

Ground track
Ground track

The orbit data is extracted from the following two-line orbital elements,

1 25682U 99020A   20329.74943399  .00000051  00000-0  21131-4 0  9995
2 25682  98.0626  27.5335 0001752  83.8798 276.2598 14.57187724149581
Epoch (UTC): 24 November 2020 17:59:11
Eccentricity: 0.0001752
inclination: 98.0626°
perigee height: 701 km
apogee height: 703 km
right ascension of ascending node: 27.5335°
argument of perigee: 83.8798°
revolutions per day: 14.57187724
mean anomaly at epoch: 276.2598°
orbit number at epoch: 14958

The dashed part of the orbit path shows where the satellite is in the earth's shadow,  

DLR